Regional Weather Roundup
Issued by NWS

Home | Current Version | Previous Version | Text Only | Print | Product List | Glossary On
Versions: 1 2 3 4 5 6 7 8 9 10 11 12 13 14 15 16 17 18 19 20 21 22 23 24 25 26 27 28 29 30 31 32 33 34 35 36 37 38 39 40 41 42 43 44 45 46 47 48 49 50
000
ASUS45 KCYS 270510
RWRWY

WYOMING REGIONAL WEATHER ROUNDUP
NATIONAL WEATHER SERVICE CHEYENNE WY
1100 PM MDT SUN APR 26 2015

NOTE:  "FAIR" INDICATES FEW OR NO CLOUDS BELOW 12,000 FEET
WITH NO SIGNIFICANT WEATHER AND/OR OBSTRUCTIONS TO VISIBILITY.

WYZ001-270600-
YELLOWSTONE NATIONAL PARK

CITY           SKY/WX    TMP DP  RH WIND       PRES   REMARKS
LK YELLOWSTONE   N/A     31  27  85 CALM      30.20R
W YELLOWSTONE  NOT AVBL

$$
WYZ002>013-054>058-071-098>099-270600-
NORTHERN WYOMING

CITY           SKY/WX    TMP DP  RH WIND       PRES   REMARKS
JACKSON        CLOUDY    39  37  93 N5        30.16R
CODY           CLOUDY    36  28  75 N13       30.22R WCI  27
GREYBULL       CLOUDY    40  31  70 NW18      30.19R WCI  31
WORLAND        CLOUDY    39  35  86 NW10      30.19R WCI  32
SHERIDAN       MIX PCPN  36  34  92 NW13      30.25R WCI  27
BUFFALO        CLOUDY    36  34  92 N10       30.21R WCI  28
GILLETTE       MIX PCPN  35  34  96 N12       30.19S FOG     WCI  27
HULETT         LGT RAIN  39  37  93 N7        30.19R WCI  34
NEWCASTLE      LGT RAIN  43  43 100 NW3       30.16R

$$
WYZ014>020-022>026-101>103-270600-
CENTRAL WYOMING

CITY           SKY/WX    TMP DP  RH WIND       PRES   REMARKS
BIG PINEY      CLOUDY    39  30  70 NW9       30.12R WCI  33
PINEDALE       CLOUDY    36  34  93 NW10      30.13R WCI  28
DUBOIS         CLOUDY    34  32  93 SE8       30.14R FOG     WCI  27
LANDER         CLOUDY    41  37  86 CALM      30.15R
RIVERTON       CLOUDY    40  35  83 NE7       30.16R
CASPER         LGT RAIN  36  34  92 N6        30.17R FOG     WCI  31
DOUGLAS        LGT RAIN  40  39  97 NW7       30.14R FOG

$$
WYZ021-027>030-104>119-270600-
SOUTHERN WYOMING

CITY           SKY/WX    TMP DP  RH WIND       PRES   REMARKS
EVANSTON       CLOUDY    35  31  85 N7        30.16R WCI  29
KEMMERER       CLOUDY    36  32  87 NW9       30.13R WCI  29
FORT BRIDGER   CLOUDY    37  34  87 W13       30.17R WCI  29
ROCK SPRINGS   CLOUDY    37  34  89 E17       30.11R WCI  27
DIXON          LGT RAIN  40  38  93 CALM      30.05R
RAWLINS        CLOUDY    37  33  85 N15       30.08R WCI  28
SARATOGA       FAIR      37  36  93 CALM      30.05R
LARAMIE        CLOUDY    37  32  82 S3        30.07S
CHEYENNE       CLOUDY    38  37  97 E8        30.11R FOG     WCI  32
TORRINGTON     CLOUDY    43  40  89 SE8       30.12R
PINE BLUFFS    RAIN      37  37 100 SE5       30.12S WCI  34

$$


USA.gov is the U.S. government's official web portal to all federal, state and local government web resources and services.